Time,TemperatureF,DewpointF,PressureIn,WindDirection,WindDirectionDegrees,WindSpeedMPH,WindSpeedGustMPH,Humidity,HourlyPrecipIn,Conditions,Clouds,dailyrainin,SolarRadiationWatts/m^2,SoftwareType,DateUTC
2013-01-01 00:10:00,35.2,34.0,30.24,ENE,58,0.0,2.0,94,0.00,,,0.00,0,weatherlink.com 1.10,2013-01-01 08:10:00,
2013-01-01 00:25:00,35.5,34.0,30.23,ENE,58,0.0,0.0,95,0.00,,,0.00,0,weatherlink.com 1.10,2013-01-01 08:25:00,
2013-01-01 00:40:00,35.7,34.0,30.22,East,85,0.0,2.0,95,0.00,,,0.00,0,weatherlink.com 1.10,2013-01-01 08:40:00,
2013-01-01 00:55:00,35.6,34.0,30.22,East,85,0.0,0.0,95,0.00,,,0.00,0,weatherlink.com 1.10,2013-01-01 08:55:00,
2013-01-01 01:10:00,35.2,34.0,30.22,East,85,0.0,0.0,95,0.00,,,0.00,0,weatherlink.com 1.10,2013-01-01 09:10:00,
2013-01-01 01:25:00,34.6,33.0,30.22,East,85,0.0,1.0,95,0.01,,,0.01,0,weatherlink.com 1.10,2013-01-01 09:25:00,
2013-01-01 01:40:00,34.1,33.0,30.22,East,85,0.0,1.0,95,0.01,,,0.01,0,weatherlink.com 1.10,2013-01-01 09:40:00,
2013-01-01 01:55:00,33.9,33.0,30.22,East,85,0.0,1.0,95,0.01,,,0.01,0,weatherlink.com 1.10,2013-01-01 09:55:00,
2013-01-01 02:10:00,33.6,32.0,30.23,ENE,63,1.0,3.0,95,0.01,,,0.01,0,weatherlink.com 1.10,2013-01-01 10:10:00,
2013-01-01 02:25:00,34.1,33.0,30.23,ENE,57,0.0,1.0,96,0.00,,,0.01,0,weatherlink.com 1.10,2013-01-01 10:25:00,
2013-01-01 02:40:00,34.1,33.0,30.23,North,5,1.0,3.0,96,0.00,,,0.01,0,weatherlink.com 1.10,2013-01-01 10:40:00,
2013-01-01 02:55:00,33.1,32.0,30.23,WNW,286,0.0,3.0,95,0.00,,,0.01,0,weatherlink.com 1.10,2013-01-01 10:55:00,
2013-01-01 03:10:00,32.7,32.0,30.23,WNW,286,0.0,1.0,95,0.00,,,0.01,0,weatherlink.com 1.10,2013-01-01 11:10:00,
2013-01-01 03:25:00,33.2,32.0,30.24,WNW,296,0.0,1.0,96,0.00,,,0.01,0,weatherlink.com 1.10,2013-01-01 11:25:00,
2013-01-01 03:40:00,33.4,32.0,30.24,WNW,296,0.0,0.0,96,0.00,,,0.01,0,weatherlink.com 1.10,2013-01-01 11:40:00,
2013-01-01 03:55:00,33.8,33.0,30.24,WNW,296,0.0,1.0,96,0.00,,,0.01,0,weatherlink.com 1.10,2013-01-01 11:55:00,
2013-01-01 04:10:00,34.0,33.0,30.24,WNW,296,0.0,0.0,96,0.00,,,0.01,0,weatherlink.com 1.10,2013-01-01 12:10:00,
2013-01-01 04:25:00,34.5,34.0,30.23,WNW,296,0.0,2.0,96,0.00,,,0.01,0,weatherlink.com 1.10,2013-01-01 12:25:00,
2013-01-01 04:40:00,34.5,34.0,30.24,WNW,296,0.0,0.0,96,0.00,,,0.01,0,weatherlink.com 1.10,2013-01-01 12:40:00,
2013-01-01 04:55:00,34.5,34.0,30.24,WNW,298,0.0,1.0,96,0.00,,,0.01,0,weatherlink.com 1.10,2013-01-01 12:55:00,
2013-01-01 05:10:00,34.5,34.0,30.23,WNW,298,0.0,1.0,96,0.00,,,0.01,0,weatherlink.com 1.10,2013-01-01 13:10:00,
2013-01-01 05:25:00,34.2,33.0,30.23,WNW,298,0.0,0.0,96,0.00,,,0.01,0,weatherlink.com 1.10,2013-01-01 13:25:00,
2013-01-01 05:40:00,33.9,33.0,30.24,WNW,298,0.0,0.0,96,0.00,,,0.01,0,weatherlink.com 1.10,2013-01-01 13:40:00,
2013-01-01 05:55:00,33.4,32.0,30.24,WNW,298,0.0,0.0,96,0.00,,,0.01,0,weatherlink.com 1.10,2013-01-01 13:55:00,
2013-01-01 06:10:00,33.1,32.0,30.25,WNW,298,0.0,1.0,96,0.00,,,0.01,0,weatherlink.com 1.10,2013-01-01 14:10:00,
2013-01-01 06:25:00,32.8,32.0,30.25,WNW,298,0.0,0.0,96,0.00,,,0.01,0,weatherlink.com 1.10,2013-01-01 14:25:00,
2013-01-01 06:40:00,32.0,31.0,30.25,NE,43,0.0,1.0,96,0.00,,,0.01,0,weatherlink.com 1.10,2013-01-01 14:40:00,
2013-01-01 06:55:00,31.9,31.0,30.26,NE,46,0.0,1.0,96,0.00,,,0.01,0,weatherlink.com 1.10,2013-01-01 14:55:00,
2013-01-01 07:10:00,32.2,31.0,30.25,NE,54,1.0,2.0,96,0.00,,,0.01,0,weatherlink.com 1.10,2013-01-01 15:10:00,
2013-01-01 07:25:00,32.0,31.0,30.25,East,80,0.0,2.0,96,0.00,,,0.01,0,weatherlink.com 1.10,2013-01-01 15:25:00,
2013-01-01 07:40:00,31.8,31.0,30.25,SE,145,0.0,4.0,96,0.00,,,0.01,7,weatherlink.com 1.10,2013-01-01 15:40:00,
2013-01-01 07:55:00,31.8,31.0,30.25,West,272,0.0,3.0,96,0.00,,,0.01,26,weatherlink.com 1.10,2013-01-01 15:55:00,
2013-01-01 08:10:00,31.7,31.0,30.26,SE,124,0.0,3.0,96,0.00,,,0.01,46,weatherlink.com 1.10,2013-01-01 16:10:00,
2013-01-01 08:25:00,31.7,31.0,30.26,ESE,107,0.0,2.0,96,0.00,,,0.01,54,weatherlink.com 1.10,2013-01-01 16:25:00,
2013-01-01 08:40:00,31.8,31.0,30.26,SE,128,0.0,2.0,96,0.00,,,0.01,135,weatherlink.com 1.10,2013-01-01 16:40:00,
2013-01-01 08:55:00,32.1,31.0,30.25,ENE,65,0.0,1.0,96,0.00,,,0.01,127,weatherlink.com 1.10,2013-01-01 16:55:00,
2013-01-01 09:10:00,33.7,33.0,30.26,SSW,203,0.0,2.0,96,0.00,,,0.00,237,weatherlink.com 1.10,2013-01-01 17:10:00,
2013-01-01 09:25:00,34.8,34.0,30.27,WNW,303,0.0,2.0,97,0.00,,,0.00,281,weatherlink.com 1.10,2013-01-01 17:25:00,
2013-01-01 09:40:00,36.6,36.0,30.27,WSW,246,0.0,2.0,97,0.00,,,0.00,301,weatherlink.com 1.10,2013-01-01 17:40:00,
2013-01-01 09:55:00,38.2,38.0,30.27,WSW,246,0.0,1.0,97,0.00,,,0.00,332,weatherlink.com 1.10,2013-01-01 17:55:00,
2013-01-01 10:10:00,38.7,38.0,30.27,NE,55,1.0,2.0,97,0.00,,,0.00,364,weatherlink.com 1.10,2013-01-01 18:10:00,
2013-01-01 10:25:00,39.2,38.0,30.27,NNW,327,2.0,3.0,96,0.00,,,0.00,392,weatherlink.com 1.10,2013-01-01 18:25:00,
2013-01-01 10:40:00,40.5,39.0,30.27,East,94,0.0,2.0,95,0.00,,,0.00,418,weatherlink.com 1.10,2013-01-01 18:40:00,
2013-01-01 10:56:00,42.3,40.0,30.26,East,88,0.0,2.0,90,0.00,,,0.00,439,weatherlink.com 1.10,2013-01-01 18:56:00,
2013-01-01 11:11:00,44.9,40.0,30.26,South,172,0.0,3.0,84,0.00,,,0.00,450,weatherlink.com 1.10,2013-01-01 19:11:00,
2013-01-01 11:26:00,46.6,40.0,30.25,SE,135,0.0,2.0,78,0.00,,,0.00,461,weatherlink.com 1.10,2013-01-01 19:26:00,
2013-01-01 11:41:00,48.4,39.0,30.25,WNW,290,2.0,3.0,70,0.00,,,0.00,461,weatherlink.com 1.10,2013-01-01 19:41:00,
2013-01-01 11:56:00,49.9,39.0,30.24,ESE,121,3.0,4.0,66,0.00,,,0.00,478,weatherlink.com 1.10,2013-01-01 19:56:00,
2013-01-01 12:11:00,51.7,38.0,30.23,SE,142,7.0,11.0,60,0.00,,,0.00,487,weatherlink.com 1.10,2013-01-01 20:11:00,
2013-01-01 12:26:00,52.4,36.0,30.22,East,80,0.0,9.0,53,0.00,,,0.00,487,weatherlink.com 1.10,2013-01-01 20:26:00,
2013-01-01 12:41:00,53.3,35.0,30.22,SE,139,0.0,8.0,51,0.00,,,0.00,480,weatherlink.com 1.10,2013-01-01 20:41:00,
2013-01-01 12:56:00,54.5,34.0,30.21,ESE,117,5.0,8.0,47,0.00,,,0.00,469,weatherlink.com 1.10,2013-01-01 20:56:00,
2013-01-01 13:11:00,54.4,34.0,30.21,ENE,78,5.0,14.0,46,0.00,,,0.00,455,weatherlink.com 1.10,2013-01-01 21:11:00,
2013-01-01 13:26:00,54.6,33.0,30.21,South,174,4.0,10.0,44,0.00,,,0.00,438,weatherlink.com 1.10,2013-01-01 21:26:00,
2013-01-01 13:41:00,55.0,33.0,30.21,ESE,117,3.0,10.0,43,0.00,,,0.00,417,weatherlink.com 1.10,2013-01-01 21:41:00,
2013-01-01 13:58:00,55.6,32.0,30.20,SE,125,6.0,7.0,41,0.00,,,0.00,388,weatherlink.com 1.10,2013-01-01 21:58:00,
2013-01-01 14:11:00,55.7,30.0,30.20,SSE,152,3.0,10.0,38,0.00,,,0.00,155,weatherlink.com 1.10,2013-01-01 22:11:00,
2013-01-01 14:26:00,56.1,31.0,30.20,East,80,1.0,5.0,39,0.00,,,0.00,33,weatherlink.com 1.10,2013-01-01 22:26:00,
2013-01-01 14:41:00,56.4,32.0,30.20,SSE,153,0.0,4.0,40,0.00,,,0.00,30,weatherlink.com 1.10,2013-01-01 22:41:00,
2013-01-01 14:56:00,56.0,30.0,30.21,SSE,163,0.0,7.0,37,0.00,,,0.00,30,weatherlink.com 1.10,2013-01-01 22:56:00,
2013-01-01 15:11:00,56.2,31.0,30.21,SSE,161,4.0,6.0,39,0.00,,,0.00,28,weatherlink.com 1.10,2013-01-01 23:11:00,
2013-01-01 15:26:00,56.0,31.0,30.20,SSE,153,1.0,5.0,39,0.00,,,0.00,26,weatherlink.com 1.10,2013-01-01 23:26:00,
2013-01-01 15:41:00,55.7,29.0,30.20,SSE,150,0.0,8.0,36,0.00,,,0.00,74,weatherlink.com 1.10,2013-01-01 23:41:00,
2013-01-01 15:56:00,56.0,31.0,30.20,WSW,250,0.0,2.0,39,0.00,,,0.00,91,weatherlink.com 1.10,2013-01-01 23:56:00,
2013-01-01 16:11:00,56.0,31.0,30.19,SW,222,0.0,3.0,39,0.00,,,0.00,53,weatherlink.com 1.10,2013-01-02 00:11:00,
2013-01-01 16:26:00,55.2,31.0,30.19,SW,217,0.0,7.0,40,0.00,,,0.00,21,weatherlink.com 1.10,2013-01-02 00:26:00,
2013-01-01 16:41:00,53.9,32.0,30.18,SE,145,0.0,3.0,43,0.00,,,0.00,12,weatherlink.com 1.10,2013-01-02 00:41:00,
2013-01-01 16:56:00,52.4,31.0,30.18,SSW,205,0.0,3.0,45,0.00,,,0.00,5,weatherlink.com 1.10,2013-01-02 00:56:00,
2013-01-01 17:11:00,50.9,32.0,30.18,SSW,211,1.0,1.0,48,0.00,,,0.00,0,weatherlink.com 1.10,2013-01-02 01:11:00,
2013-01-01 17:27:00,49.3,33.0,30.18,SSW,198,0.0,1.0,53,0.00,,,0.00,0,weatherlink.com 1.10,2013-01-02 01:27:00,
2013-01-01 17:42:00,47.8,33.0,30.19,SSW,198,0.0,0.0,57,0.00,,,0.00,0,weatherlink.com 1.10,2013-01-02 01:42:00,